Terminal Aerodrome Forecast
Issued by NWS

Home | Current Version | Previous Version | Text Only | Print | Product List | Glossary On
Versions: 1 2 3 4 5 6 7 8 9 10 11 12 13 14 15 16 17 18 19 20 21 22 23 24 25 26 27 28 29 30 31 32 33 34 35 36 37 38 39 40 41 42 43 44 45 46 47 48 49 50
000
FTAK31 PANC 231138
TAFASD
TAF
PASD 231138Z 2312/2412 04005KT 3SM -RA BKN005 OVC012 WS015/13040KT
      TEMPO 2312/2315 SCT005 OVC015
     FM232100 22011KT 4SM -RA BKN005 OVC012
     FM232200 24014KT P6SM -SHRA BKN012 OVC025
      AMD LTD TO CLD VIS AND WIND=

USA.gov is the U.S. government's official web portal to all federal, state and local government web resources and services.